Stations météo

réclame
Mon MeteoGroup
Ahaus, Allemagne (10309): Température de l'air & dewpoint: 14.11.2018 12:00:00 - 20.11.2018 12:00:00 (CET)Ahaus, Allemagne (10309): Température de l'air 5cm & Température de l'air -5cm: 14.11.2018 12:00:00 - 20.11.2018 12:00:00 (CET)Ahaus, Allemagne (10309): Température de l'air -20cm & Température de l'air -100cm: 14.11.2018 12:00:00 - 20.11.2018 12:00:00 (CET)Ahaus, Allemagne (10309): Vitesse du vent & gusts: 14.11.2018 12:00:00 - 20.11.2018 12:00:00 (CET)Ahaus, Allemagne (10309): Direction du vent: 14.11.2018 12:00:00 - 20.11.2018 12:00:00 (CET)Ahaus, Allemagne (10309): reduced air pressure: 14.11.2018 12:00:00 - 20.11.2018 12:00:00 (CET)Ahaus, Allemagne (10309): visibility: 14.11.2018 12:00:00 - 20.11.2018 12:00:00 (CET)Ahaus, Allemagne (10309): Ensoleillement: 14.11.2018 12:00:00 - 20.11.2018 12:00:00 (CET)Ahaus, Allemagne (10309): Quantités de précipitations: 14.11.2018 12:00:00 - 20.11.2018 12:00:00 (CET)
Date & Time tt [°C] td [°C] tt 5cm [°C] tt -5cm [°C] tt -20cm [°C] tt -100cm [°C] ff [km/h] ff [knt] fx [km/h] fx [knt] dd ppp [hPa] vv [km] sd [min] rr [mm]
20.11.2018 12:00:00 2,9 -1,5 2,8 2,8 4,0 9,3 28 15 44 24 E 1012,0 12 0 0,0
20.11.2018 11:00:00 2,8 -1,1 2,4 2,8 4,0 9,3 25 14 49 26 E 1012,5 9 0 0,0
20.11.2018 10:00:00 3,2 -1,4 2,9 2,7 4,0 9,3 24 13 48 26 E 1012,4 10 0 0,0
20.11.2018 09:00:00 3,3 -1,3 2,9 2,7 4,0 9,3 27 15 50 27 E 1012,6 11 0 0,0
20.11.2018 08:00:00 3,3 -1,1 2,9 2,7 4,1 9,3 35 19 52 28 ENE 1012,5 11 0 0,0
20.11.2018 07:00:00 3,4 -1,3 3,0 2,6 4,1 9,3 27 15 50 27 ENE 1013,0 15 0 0,0
20.11.2018 06:00:00 3,4 -1,6 3,0 2,6 4,1 9,3 24 13 46 25 E 1013,6 16 0 0,0
20.11.2018 05:00:00 3,2 -2,0 2,7 2,5 4,1 9,3 24 13 48 26 E 1014,0 18 0 0,0
20.11.2018 04:00:00 3,2 -1,7 2,8 2,5 4,2 9,3 25 14 44 24 ENE 1014,5 17 0 0,0
20.11.2018 03:00:00 3,1 -2,2 2,6 2,4 4,3 9,4 29 16 50 27 ENE 1015,2 19 0 0,0
20.11.2018 02:00:00 2,4 -3,0 1,7 2,4 4,4 9,4 25 13 50 27 E 1016,3 17 0 0,0
20.11.2018 01:00:00 3,0 -2,8 2,2 2,8 4,4 9,4 31 17 50 27 ENE 1016,8 22 0 0,0
20.11.2018 00:00:00 3,8 -1,9 3,3 3,0 4,4 9,4 31 17 54 29 ENE 1016,7 26 0 0,0
19.11.2018 23:00:00 4,1 -0,1 3,6 2,8 4,5 9,4 27 15 44 24 ENE 1017,0 31 0 0,0
19.11.2018 22:00:00 3,4 -0,5 2,1 2,7 4,6 9,4 24 13 44 24 ENE 1017,7 32 0 0,0
19.11.2018 21:00:00 3,7 -0,1 2,5 3,1 4,7 9,4 31 17 50 27 ENE 1017,8 32 0 0,0
19.11.2018 20:00:00 4,2 0,5 3,1 3,5 4,8 9,5 23 12 40 22 ENE 1018,2 36 0 0,0
19.11.2018 19:00:00 4,1 0,7 3,4 3,4 4,9 9,5 20 11 39 21 NE 1018,5 44 0 0,0
19.11.2018 18:00:00 3,5 0,6 1,9 3,9 5,0 9,5 20 11 52 28 ENE 1018,9 42 0 0,0
19.11.2018 17:00:00 5,1 0,5 4,5 4,3 5,0 9,5 23 13 44 24 NE 1019,0 46 0 0,0
19.11.2018 16:00:00 5,5 0,8 5,1 5,0 4,9 9,5 24 13 42 23 ENE 1019,2 57 22 0,0
19.11.2018 15:00:00 5,3 0,8 4,9 5,2 4,8 9,5 26 14 42 23 ENE 1019,5 58 8 0,0
19.11.2018 14:00:00 5,8 0,9 5,9 5,2 4,7 9,6 25 13 41 22 NE 1019,9 47 0 0,0
19.11.2018 13:00:00 6,0 1,4 6,2 5,3 4,6 9,6 27 14 45 24 ENE 1020,6 56 0 0,0
19.11.2018 12:00:00 6,0 1,9 6,3 5,2 4,4 9,6 24 13 42 23 ENE 1021,2 37 0 0,0
19.11.2018 11:00:00 5,9 2,5 6,5 4,6 4,3 9,6 18 10 36 20 NE 1022,0 40 0 0,0
19.11.2018 10:00:00 5,4 3,0 5,5 4,1 4,2 9,6 19 10 32 17 NE 1022,6 24 0 0,0
19.11.2018 09:00:00 5,2 2,8 4,8 3,7 4,1 9,6 19 10 32 17 NE 1022,9 28 0 0,0
19.11.2018 08:00:00 5,3 2,6 4,8 3,6 4,1 9,7 20 11 39 21 NE 1023,2 31 0 0,0
19.11.2018 07:00:00 4,9 2,9 3,8 3,5 4,0 9,7 21 12 32 18 NE 1023,4 19 0 0,0
19.11.2018 06:00:00 5,0 2,8 4,5 3,5 3,9 9,7 12 6 30 16 NE 1024,1 23 0 0,0
19.11.2018 05:00:00 5,1 2,5 4,5 3,4 3,8 9,7 19 10 32 17 NE 1024,6 28 0 0,0
19.11.2018 04:00:00 5,1 2,7 4,5 3,2 3,7 9,7 16 9 31 17 NE 1024,8 26 0 0,0
19.11.2018 03:00:00 5,0 2,6 4,5 2,9 3,7 9,7 14 8 36 20 NE 1025,5 22 0 0,0
19.11.2018 02:00:00 4,8 2,9 4,1 2,4 3,6 9,8 12 6 21 11 NE 1026,1 14 0 0,0
19.11.2018 01:00:00 3,7 2,2 1,8 2,3 3,6 9,8 13 7 21 12 NNE 1026,8 8 0 0,0
19.11.2018 00:00:00 4,1 2,4 3,4 2,2 3,6 9,8 11 6 22 12 ENE 1027,5 8 0 0,0
18.11.2018 23:00:00 3,2 1,7 1,9 1,9 3,6 9,8 13 7 24 13 ENE 1027,9 6 0 0,0
18.11.2018 22:00:00 3,3 1,0 2,3 1,7 3,6 9,8 12 7 21 11 NE 1027,9 8 0 0,0
18.11.2018 21:00:00 2,8 -1,5 2,0 1,4 3,6 9,8 11 6 16 9 NE 1027,9 11 0 0,0
18.11.2018 20:00:00 1,8 -5,1 1,0 1,4 3,7 9,9 8 4 14 7 N 1028,4 18 0 0,0
18.11.2018 19:00:00 1,8 -5,1 -0,9 1,4 3,8 9,9 10 6 19 10 NE 1028,8 16 0 0,0
18.11.2018 18:00:00 2,2 -5,1 -0,7 1,5 3,9 9,9 10 5 20 11 NE 1028,9 15 0 0,0
18.11.2018 17:00:00 2,7 -5,2 0,4 2,2 3,9 9,9 11 6 25 14 NE 1028,9 14 4 0,0
18.11.2018 16:00:00 3,9 -5,7 3,3 3,1 3,8 9,9 17 9 26 14 NE 1029,6 15 60 0,0
18.11.2018 15:00:00 4,4 -4,7 5,7 3,3 3,6 9,9 14 7 24 13 NE 1029,8 14 60 0,0
18.11.2018 14:00:00 3,3 -3,6 3,1 2,6 3,5 9,9 10 6 24 13 NE 1030,1 13 40 0,0
18.11.2018 13:00:00 3,4 -4,2 5,2 1,1 3,5 10,0 15 8 22 12 ENE 1030,9 13 43 0,0
18.11.2018 12:00:00 2,7 -3,7 5,1 0,9 3,6 10,0 16 8 27 14 ENE 1031,6 11 60 0,0
18.11.2018 11:00:00 1,3 -3,8 3,0 0,9 3,6 10,0 17 9 27 14 NE 1032,1 10 60 0,0
18.11.2018 10:00:00 -0,1 -3,8 1,4 0,9 3,7 10,0 16 9 24 13 ENE 1031,8 9 60 0,0
18.11.2018 09:00:00 -1,4 -4,0 -2,2 1,0 3,8 10,0 11 6 21 11 NE 1032,2 8 15 0,0
18.11.2018 08:00:00 -1,7 -3,6 -3,4 1,1 3,8 10,0 13 7 22 12 NE 1032,2 7 0 0,0
18.11.2018 07:00:00 -1,5 -2,8 -3,2 1,2 3,9 10,0 11 6 21 12 NE 1032,1 5 0 0,0
18.11.2018 06:00:00 -1,2 -2,7 -2,8 1,3 4,0 10,1 13 7 18 10 NE 1031,7 4,8 0 0,0
18.11.2018 05:00:00 -0,6 -2,3 -2,9 1,4 4,1 10,1 11 6 16 8 NE 1032,2 6 0 0,0
18.11.2018 04:00:00 -0,7 -2,2 -2,8 1,5 4,2 10,1 11 6 20 11 ENE 1032,3 5 0 0,0
18.11.2018 03:00:00 0,0 -1,9 -2,0 1,5 4,3 10,1 11 6 18 10 ENE 1032,7 6 0 0,0
18.11.2018 02:00:00 0,5 -1,9 -1,6 1,6 4,4 10,1 9 5 17 9 ENE 1032,7 7 0 0,0
18.11.2018 01:00:00 0,8 -1,8 -1,3 1,7 4,5 10,1 11 6 19 10 ENE 1032,9 7 0 0,0
18.11.2018 00:00:00 1,8 -1,8 -0,2 1,8 4,7 10,2 14 8 20 11 ENE 1032,7 8 0 0,0
17.11.2018 23:00:00 1,7 -1,9 -0,2 1,9 4,9 10,2 10 6 21 12 E 1032,9 8 0 0,0
17.11.2018 22:00:00 1,3 -1,7 -1,1 2,0 5,1 10,2 9 5 21 11 ENE 1033,2 8 0 0,0
17.11.2018 21:00:00 1,9 -1,1 -0,1 2,5 5,3 10,2 13 7 21 12 ENE 1032,9 8 0 0,0
17.11.2018 20:00:00 2,9 -0,7 0,8 3,0 5,4 10,2 12 6 26 14 ENE 1032,6 9 0 0,0
17.11.2018 19:00:00 3,7 0,1 1,8 3,6 5,6 10,2 15 8 23 12 ENE 1032,8 4,1 0 0,0
17.11.2018 18:00:00 4,9 0,8 2,8 4,3 5,7 10,2 13 7 23 12 ENE 1032,4 10 0 0,0
17.11.2018 17:00:00 6,1 1,1 3,6 5,2 5,6 10,3 13 7 24 13 ENE 1032,5 13 5 0,0
17.11.2018 16:00:00 7,9 1,5 7,1 6,2 5,5 10,3 12 6 25 13 NE 1032,1 14 60 0,0
17.11.2018 15:00:00 9,0 0,1 9,4 6,8 5,2 10,3 20 11 34 18 E 1032,3 17 60 0,0
17.11.2018 14:00:00 8,7 1,4 10,1 6,7 4,8 10,3 15 8 26 14 E 1032,7 21 60 0,0
17.11.2018 13:00:00 8,1 1,3 9,2 6,0 4,5 10,3 14 8 28 15 E 1033,0 14 59 0,0
17.11.2018 12:00:00 6,9 1,3 8,7 4,5 4,2 10,3 13 7 27 15 E 1033,3 12 60 0,0
17.11.2018 11:00:00 5,3 0,9 6,8 2,8 4,2 10,4 12 6 28 15 ESE 1033,4 8 60 0,0
17.11.2018 10:00:00 4,1 0,4 4,6 1,5 4,2 10,4 13 7 23 12 E 1033,0 8 60 0,0
17.11.2018 09:00:00 2,2 -0,2 1,2 1,5 4,3 10,4 7 4 20 11 ENE 1032,7 7 22 0,0
17.11.2018 08:00:00 2,5 0,2 -0,1 1,6 4,4 10,4 11 6 21 11 ENE 1032,0 7 0 0,0
17.11.2018 07:00:00 2,1 0,1 -0,2 1,6 4,5 10,4 11 6 18 10 E 1031,7 7 0 0,0
17.11.2018 06:00:00 1,4 0,0 -2,4 1,7 4,6 10,4 6 4 11 6 ENE 1031,6 6 0 0,0
17.11.2018 05:00:00 1,6 0,3 -2,4 1,6 4,8 10,4 6 3 14 8 ENE 1031,6 6 0 0,0
17.11.2018 04:00:00 3,1 0,8 0,1 1,9 4,9 10,5 6 4 20 11 E 1031,2 7 0 0,0
17.11.2018 03:00:00 3,5 1,1 1,2 2,0 5,1 10,5 10 5 18 10 E 1031,3 7 0 0,0
17.11.2018 02:00:00 3,6 1,0 1,3 2,2 5,2 10,5 8 5 16 9 E 1031,3 8 0 0,0
17.11.2018 01:00:00 3,7 1,0 1,3 2,5 5,4 10,5 10 5 19 10 E 1031,2 10 0 0,0
17.11.2018 00:00:00 4,4 1,2 2,0 2,6 5,5 10,5 10 5 17 9 E 1030,9 12 0 0,0
16.11.2018 23:00:00 4,5 1,1 1,6 2,9 5,7 10,5 9 5 16 9 E 1030,8 13 0 0,0
16.11.2018 22:00:00 4,9 1,3 0,9 3,3 5,8 10,5 7 4 15 8 E 1030,4 14 0 0,0
16.11.2018 21:00:00 6,1 2,1 3,0 3,7 6,0 10,6 9 5 18 10 E 1030,1 14 0 0,0
16.11.2018 20:00:00 6,9 2,4 3,7 4,1 6,1 10,6 8 4 19 10 E 1029,8 13 0 0,0
16.11.2018 19:00:00 5,4 3,3 0,9 4,5 6,3 10,6 8 4 14 7 E 1029,7 8 0 0,0
16.11.2018 18:00:00 6,0 3,9 1,2 5,4 6,3 10,6 8 4 10 6 ENE 1029,4 8 0 0,0
16.11.2018 17:00:00 7,2 4,1 2,3 6,5 6,2 10,6 7 4 14 8 ENE 1029,3 9 6 0,0
16.11.2018 16:00:00 9,5 3,9 9,0 7,5 5,9 10,6 10 6 15 8 ENE 1029,4 13 60 0,0
16.11.2018 15:00:00 10,9 3,7 12,4 7,8 5,5 10,6 9 5 14 8 E 1029,1 16 60 0,0
16.11.2018 14:00:00 10,3 3,7 12,3 7,2 5,0 10,7 11 6 16 9 ENE 1029,2 16 60 0,0
16.11.2018 13:00:00 8,7 3,3 10,0 5,9 4,7 10,7 12 7 17 9 ESE 1029,1 12 59 0,0
16.11.2018 12:00:00 6,6 2,6 9,6 3,3 4,6 10,7 6 3 10 5 E 1029,7 10 60 0,0
16.11.2018 11:00:00 3,4 1,3 6,0 1,6 4,7 10,7 7 4 10 5 ENE 1030,0 8 60 0,0
16.11.2018 10:00:00 0,8 -0,8 3,8 1,6 4,8 10,7 6 3 21 12 ENE 1029,7 6 60 0,0
16.11.2018 09:00:00 -2,0 -2,8 -1,7 1,7 4,9 10,7 7 4 10 5 NNE 1029,5 5 25 0,0
16.11.2018 08:00:00 -3,3 -3,8 -5,2 1,7 5,0 10,7 8 4 10 5 E 1029,1 6 0 0,0
16.11.2018 07:00:00 -2,7 -3,2 -5,4 1,8 5,1 10,7 5 3 10 5 NNE 1028,4 7 0 0,0
16.11.2018 06:00:00 -2,0 -2,1 -4,7 1,8 5,2 10,7 6 3 8 5 NE 1028,1 3,6 0 0,0
16.11.2018 05:00:00 -2,2 -2,4 -4,1 1,9 5,4 10,7 5 3 9 5 E 1027,6 2,7 0 0,0
16.11.2018 04:00:00 -2,8 -3,0 -4,3 2,0 5,5 10,8 3 2 18 10 ENE 1027,8 0,2 0 0,0
16.11.2018 03:00:00 -2,1 -2,1 -3,6 2,1 5,7 10,8 4 2 6 3 E 1027,5 0,1 0 0,0
16.11.2018 02:00:00 -1,7 -1,7 -4,1 2,2 5,9 10,8 3 2 19 10 E 1027,4 0,2 0 0,0
16.11.2018 01:00:00 -1,2 -1,3 -3,6 2,4 6,2 10,8 4 2 5 3 ESE 1026,9 0,1 0 0,0
16.11.2018 00:00:00 -0,5 -0,5 -3,1 2,6 6,4 10,8 4 2 7 4 SE 1027,2 0,2 0 0,0
15.11.2018 23:00:00 -0,3 -0,5 -2,9 3,0 6,7 10,8 3 2 19 10 SE 1027,0 4,4 0 0,0
15.11.2018 22:00:00 0,2 0,2 -2,0 3,5 6,9 10,8 6 3 19 10 SE 1026,5 2,2 0 0,0
15.11.2018 21:00:00 1,8 1,8 -2,2 4,0 7,2 10,8 2 1 7 4 SE 1026,3 3,0 0 0,0
15.11.2018 20:00:00 2,0 1,5 -1,7 4,6 7,4 10,8 4 2 8 5 E 1026,0 5 0 0,0
15.11.2018 19:00:00 2,5 2,0 -1,3 5,4 7,6 10,8 4 2 10 5 E 1026,1 8 0 0,0
15.11.2018 18:00:00 4,0 2,4 0,2 6,4 7,7 10,9 5 3 9 5 E 1025,7 12 0 0,0
15.11.2018 17:00:00 7,1 3,5 2,9 7,7 7,7 10,9 8 4 14 7 SE 1025,5 17 9 0,0
15.11.2018 16:00:00 10,0 4,0 9,4 9,0 7,4 10,9 6 3 13 7 ESE 1025,6 23 60 0,0
15.11.2018 15:00:00 10,7 3,8 11,7 9,5 7,1 10,9 11 6 16 9 SE 1025,5 24 60 0,0
15.11.2018 14:00:00 10,6 3,6 12,5 9,3 6,6 10,9 8 4 13 7 SE 1025,5 20 60 0,0
15.11.2018 13:00:00 10,0 4,3 11,7 8,5 6,2 10,9 8 4 13 7 SE 1025,9 20 60 0,0
15.11.2018 12:00:00 8,7 4,5 11,0 6,8 5,9 10,9 7 4 13 7 SE 1026,3 16 60 0,0
15.11.2018 11:00:00 6,7 3,9 8,4 4,9 5,8 10,9 9 5 11 6 SE 1026,6 10 60 0,0
15.11.2018 10:00:00 4,5 3,2 6,4 3,1 5,8 10,9 7 4 10 6 ESE 1026,7 6 60 0,0
15.11.2018 09:00:00 0,7 0,3 0,0 2,2 6,0 10,9 7 4 10 5 ESE 1026,8 2,1 27 0,0
15.11.2018 08:00:00 -0,5 -0,5 -2,7 2,3 6,2 10,9 7 4 10 5 ESE 1026,6 0,2 0 0,0
15.11.2018 07:00:00 -0,7 -0,7 -3,2 2,4 6,4 10,9 6 3 8 5 E 1026,3 0,1 0 0,0
15.11.2018 06:00:00 -0,2 -0,4 -2,7 2,7 6,6 10,9 5 3 7 4 ESE 1026,2 0,8 0 0,0
15.11.2018 05:00:00 0,8 0,8 -2,5 2,9 6,9 10,9 5 3 7 4 ESE 1026,3 0,2 0 0,0
15.11.2018 04:00:00 0,8 0,8 -2,0 3,3 7,1 10,9 5 3 7 4 ESE 1026,3 0,3 0 0,0
15.11.2018 03:00:00 1,6 1,6 -1,4 3,7 7,3 10,9 4 2 7 4 ESE 1026,3 0,2 0 0,0
15.11.2018 02:00:00 2,3 2,2 -1,0 4,0 7,5 10,9 5 3 9 5 SE 1026,3 2,4 0 0,0
15.11.2018 01:00:00 2,8 2,3 -0,9 4,5 7,8 10,9 4 2 9 5 E 1026,5 3,5 0 0,0
15.11.2018 00:00:00 5,5 4,1 1,6 4,8 8,0 10,9 8 5 12 7 SSE 1026,4 19 0 0,0
14.11.2018 23:00:00 3,6 3,5 0,6 5,1 8,2 10,9 8 5 10 5 SE 1026,6 9 0 0,0
14.11.2018 22:00:00 3,7 3,4 0,0 5,6 8,5 10,9 4 2 7 4 ESE 1026,8 9 0 0,0
14.11.2018 21:00:00 4,4 4,2 1,4 6,1 8,7 11,0 5 3 8 4 E 1026,9 8 0 0,0
14.11.2018 20:00:00 4,1 3,7 1,6 6,7 8,9 11,0 5 3 8 5 ESE 1027,0 7 0 0,0
14.11.2018 19:00:00 5,0 4,3 2,7 7,4 9,1 11,0 5 3 8 4 SE 1027,1 8 0 0,0
14.11.2018 18:00:00 7,7 5,8 3,7 8,3 9,2 11,0 5 3 12 6 S 1027,0 19 0 0,0
14.11.2018 17:00:00 9,3 6,3 5,6 9,3 9,2 11,0 7 4 14 8 SSE 1027,0 21 0 0,0
14.11.2018 16:00:00 11,1 7,1 9,7 10,3 9,0 11,0 10 6 15 8 SSE 1027,4 22 30 0,0
14.11.2018 15:00:00 11,9 7,3 12,1 10,9 8,8 11,0 13 7 19 11 S 1027,5 23 60 0,0
14.11.2018 14:00:00 12,2 8,0 13,2 10,9 8,4 11,0 13 7 21 11 SSW 1028,1 22 60 0,0
14.11.2018 13:00:00 12,1 8,2 12,9 10,3 8,1 11,0 11 6 21 11 SSW 1028,4 22 60 0,0
14.11.2018 12:00:00 11,0 7,4 12,2 9,3 7,8 11,0 15 8 21 12 S 1028,3 17 60 0,0

tt = Température de l'air
td = dewpoint
tt 5cm = Température de l'air 5cm
tt -5cm = Température de l'air -5cm
tt -20cm = Température de l'air -20cm
tt -100cm = Température de l'air -100cm
ff = Vitesse du vent
fx = gusts
dd = Direction du vent
ppp = reduced air pressure
vv = visibility
sd = Ensoleillement
rr = Quantités de précipitations

stations d'obs. à proximité